This demonstration page uses our WeatherBlox Daily Observations layout. Learn more.

Left ArrowRight Arrow

Hourly Observations for October 17, 2021

Temp ( °F °C ) Dew Point ( °F °C ) Humidity (%) Winds ( mph kmh ) Pressure ( in mb ) Visibility ( mi km ) Precip ( " mm )
12:15 am 00:15 Clear 52 11 48 9 88 88 S 3 6 29.95 1014 10 16 N/A
12:35 am 00:35 Clear 52 11 48 9 88 88 W 5 7 29.95 1014 10 16 N/A
12:55 am 00:55 Clear 48 9 48 9 100 100 WNW 5 7 29.96 1014 10 16 N/A
1:15 am 01:15 Clear 52 11 46 8 82 82 WNW 3 6 29.95 1014 10 16 N/A
1:35 am 01:35 Mostly Cloudy 50 10 46 8 88 88 NW 6 9 29.96 1014 10 16 N/A
1:55 am 01:55 Partly Cloudy 52 11 46 8 82 82 NW 6 9 29.95 1014 10 16 N/A
2:15 am 02:15 Clear 52 11 46 8 82 82 NW 5 7 29.96 1015 10 16 N/A
2:35 am 02:35 Clear 52 11 46 8 82 82 WNW 3 6 29.96 1015 10 16 N/A
2:55 am 02:55 Clear 48 9 45 7 87 87 WNW 8 13 29.97 1015 10 16 N/A
3:15 am 03:15 Clear 50 10 46 8 88 88 W 7 11 29.97 1015 10 16 N/A
3:35 am 03:35 Clear 50 10 45 7 82 82 WNW 7 11 29.97 1015 10 16 N/A
3:55 am 03:55 Clear 50 10 45 7 82 82 WNW 10 17 29.96 1014 10 16 N/A
4:15 am 04:15 Clear 50 10 45 7 82 82 WNW 7 11 29.97 1015 10 16 N/A
4:35 am 04:35 Clear 50 10 43 6 76 76 W 3 6 29.97 1015 10 16 N/A
4:55 am 04:55 Clear 50 10 43 6 76 76 WNW 5 7 29.97 1015 10 16 N/A
5:15 am 05:15 Clear 50 10 43 6 76 76 WNW 8 13 29.97 1015 10 16 N/A
5:35 am 05:35 Clear 50 10 43 6 76 76 WNW 7 11 29.98 1015 10 16 N/A
5:55 am 05:55 Clear 50 10 43 6 76 76 NW 10 17 29.98 1015 10 16 N/A
6:15 am 06:15 Clear 52 11 43 6 72 72 NW 12 19 29.97 1015 10 16 N/A
6:35 am 06:35 Clear 50 10 43 6 76 76 WNW 12 19 29.98 1015 10 16 N/A
6:55 am 06:55 Clear 50 10 43 6 76 76 WNW 14 22 29.98 1015 10 16 N/A
7:15 am 07:15 Clear 50 10 43 6 76 76 WNW 10 17 29.99 1015 10 16 N/A
7:35 am 07:35 Sunny 50 10 43 6 76 76 WNW 8 13 29.99 1015 10 16 N/A
7:55 am 07:55 Sunny 50 10 43 6 76 76 W 5 7 29.99 1015 10 16 N/A
8:15 am 08:15 Sunny 50 10 43 6 76 76 W 5 7 30.01 1016 10 16 N/A
8:35 am 08:35 Sunny 52 11 45 7 77 77 WNW 10 17 30.00 1016 10 16 N/A
8:55 am 08:55 Partly Cloudy 54 12 45 7 72 72 WNW 12 19 30.00 1016 10 16 N/A
9:15 am 09:15 Mostly Cloudy 54 12 45 7 72 72 WNW 9 15 30.00 1016 10 16 N/A
9:35 am 09:35 Partly Cloudy 55 13 45 7 67 67 WNW 9 15 30.00 1016 10 16 N/A
9:55 am 09:55 Sunny 55 13 45 7 67 67 NW 14 22 30.00 1016 10 16 N/A
10:15 am 10:15 Sunny 57 14 45 7 63 63 NW 14 22 30.00 1016 10 16 N/A
10:35 am 10:35 Sunny 59 15 45 7 59 59 NW 13 20 29.99 1016 10 16 N/A
10:55 am 10:55 Mostly Cloudy 59 15 45 7 59 59 NNW 17 28 30.00 1016 10 16 N/A
11:15 am 11:15 Partly Cloudy 59 15 45 7 59 59 NW 12 19 29.98 1015 10 16 N/A
11:35 am 11:35 Sunny 61 16 45 7 55 55 NNW 21 33 29.98 1015 10 16 N/A
11:55 am 11:55 Sunny 61 16 45 7 55 55 NW 17 28 29.98 1015 10 16 N/A
12:15 pm 12:15 Partly Cloudy 63 17 45 7 52 52 NW 18 30 29.97 1015 10 16 N/A
12:35 pm 12:35 Mostly Cloudy 61 16 43 6 52 52 NW 12 19 29.97 1015 10 16 N/A
12:55 pm 12:55 Mostly Cloudy 63 17 43 6 49 49 NNW 16 26 29.96 1014 10 16 N/A
1:15 pm 13:15 Mostly Cloudy 61 16 41 5 48 48 NNW 21 33 29.96 1014 10 16 N/A
1:35 pm 13:35 Mostly Cloudy 61 16 43 6 52 52 NNW 18 30 29.95 1014 10 16 N/A
1:55 pm 13:55 Partly Cloudy 63 17 43 6 49 49 NW 15 24 29.95 1014 10 16 N/A
2:15 pm 14:15 Partly Cloudy 61 16 43 6 52 52 NW 12 19 29.95 1014 10 16 N/A
2:35 pm 14:35 Mostly Cloudy 61 16 43 6 52 52 NW 12 19 29.95 1014 10 16 N/A
2:55 pm 14:55 Cloudy 63 17 43 6 49 49 NNW 14 22 29.94 1014 10 16 N/A
3:15 pm 15:15 Mostly Cloudy 63 17 43 6 49 49 NNW 14 22 29.94 1014 10 16 N/A
3:35 pm 15:35 Cloudy 61 16 41 5 48 48 NW 13 20 29.94 1014 10 16 N/A
3:55 pm 15:55 Cloudy 61 16 43 6 52 52 NW 9 15 29.95 1014 10 16 N/A
4:15 pm 16:15 Cloudy 61 16 43 6 52 52 NW 7 11 29.95 1014 10 16 N/A
4:35 pm 16:35 Cloudy 61 16 41 5 48 48 WNW 10 17 29.95 1014 10 16 N/A
4:55 pm 16:55 Cloudy 61 16 41 5 48 48 WNW 10 17 29.95 1014 10 16 N/A
5:15 pm 17:15 Cloudy 61 16 41 5 48 48 WNW 16 26 29.95 1014 10 16 N/A
5:35 pm 17:35 Mostly Cloudy 61 16 39 4 45 45 WNW 16 26 29.95 1014 10 16 N/A
5:55 pm 17:55 Partly Cloudy 59 15 41 5 51 51 NW 13 20 29.96 1015 10 16 N/A
6:15 pm 18:15 Partly Cloudy 59 15 41 5 51 51 NW 10 17 29.97 1015 10 16 N/A
6:35 pm 18:35 Mostly Cloudy 57 14 41 5 55 55 NW 7 11 29.98 1015 10 16 N/A
6:55 pm 18:55 Cloudy 55 13 41 5 59 59 WNW 7 11 29.98 1015 10 16 N/A
7:15 pm 19:15 Cloudy 55 13 41 5 59 59 WNW 5 7 29.99 1016 10 16 N/A
7:35 pm 19:35 Partly Cloudy 54 12 41 5 63 63 WNW 7 11 30.00 1016 10 16 N/A
7:55 pm 19:55 Clear 54 12 41 5 63 63 WNW 5 7 30.00 1016 10 16 N/A
8:15 pm 20:15 Clear 54 12 41 5 63 63 WNW 3 6 30.00 1016 10 16 N/A
8:35 pm 20:35 Partly Cloudy 52 11 41 5 67 67 W 3 6 30.01 1016 10 16 N/A
8:55 pm 20:55 Partly Cloudy 52 11 43 6 72 72 W 3 6 30.01 1016 10 16 N/A
9:15 pm 21:15 Mostly Cloudy 52 11 41 5 67 67 N N/A 30.01 1016 10 16 N/A
9:35 pm 21:35 Cloudy 50 10 43 6 76 76 W 5 7 30.03 1017 10 16 N/A
9:55 pm 21:55 Cloudy 50 10 45 7 82 82 WNW 5 7 30.03 1017 10 16 N/A
10:15 pm 22:15 Cloudy 52 11 43 6 72 72 N N/A 30.03 1017 10 16 N/A
10:35 pm 22:35 Mostly Cloudy 50 10 43 6 76 76 WNW 3 6 30.04 1017 10 16 N/A
10:55 pm 22:55 Partly Cloudy 50 10 43 6 76 76 WNW 6 9 30.05 1017 10 16 N/A
11:15 pm 23:15 Clear 48 9 43 6 82 82 W 5 7 30.04 1017 10 16 N/A
11:35 pm 23:35 Clear 50 10 43 6 76 76 W 3 6 30.05 1017 10 16 N/A
11:55 pm 23:55 Clear 48 9 43 6 82 82 W 6 9 30.04 1017 10 16 N/A

Powered by AerisWeather